Location: Zagreb
(45.8000°N, 16.0000°E)
Time: 15:08:06
(UTC+02:00)

Transit 2A Rocket - Visible Passes

Search period start: 06 October 2022 00:00
Search period end: 16 October 2022 00:00
Orbit: 593 x 908 km, 66.7° (Epoch: 05 October)

Date Brightness Start Highest point End Pass type
(mag) Time Alt. Az. Time Alt. Az. Time Alt. Az.
06 Oct 6.1 05:20:35 10° S 05:24:29 34° ESE 05:28:26 10° NE visible
07 Oct 7.0 04:38:46 10° SSE 04:41:50 19° ESE 04:44:54 10° ENE visible
07 Oct 4.8 06:19:47 10° SW 06:23:57 48° NW 06:28:12 10° NNE visible
08 Oct 4.4 05:37:33 16° SSW 05:40:59 87° WNW 05:45:23 10° NNE visible
09 Oct 5.2 04:56:36 33° S 04:58:10 50° ESE 05:02:22 10° NE visible
10 Oct 6.3 04:15:31 27° ESE 04:15:31 27° ESE 04:19:07 10° NE visible
10 Oct 5.2 05:55:26 20° WSW 05:57:48 35° NW 06:01:51 10° NNE visible
11 Oct 7.4 03:34:18 13° E 03:34:18 13° E 03:35:17 10° ENE visible
11 Oct 4.5 05:14:13 55° W 05:14:46 61° NW 05:19:07 10° NNE visible
12 Oct 5.3 04:32:55 49° NE 04:32:55 49° NE 04:36:14 10° NE visible
12 Oct 6.2 06:12:49 13° WNW 06:14:55 18° NW 06:17:56 10° N visible
13 Oct 6.9 03:51:31 21° ENE 03:51:31 21° ENE 03:53:08 10° NE visible
13 Oct 5.6 05:31:25 26° NW 05:31:41 26° NW 05:35:27 10° NNE visible
14 Oct 5.7 04:49:57 33° N 04:49:57 33° N 04:52:48 10° NNE visible
15 Oct 6.7 04:08:26 21° NNE 04:08:26 21° NNE 04:10:00 10° NNE visible
15 Oct 6.5 05:48:19 14° NW 05:48:55 14° NW 05:51:18 10° N visible
